Find Starlink 5093

NORAD ID: 56332 Int'l Des: 2023-058 Owner: SPXS Country: US Constellation: starlink operational
LEOCIRCULARRETROGRADESSO

Live Position

Loading 3D Globe...

About Starlink 5093

Description loading...

Upcoming Passes

Passes for default location (London). Set your location on the main map for personalized predictions.

Altitude History

Loading altitude history...

Two-Line Element Set

1 56332U 23058R 26126.43979171 -.00000268 00000-0 -14462-4 0 9994
2 56332 97.5299 126.9469 0002252 90.1280 270.0205 15.05648826166813
Epoch: May 6, 2026 • Age: 9 hours

Current Status

Altitude 566.1 km
Velocity 7.58 km/s
Sub-Earth Point -40.65°S, 30.03°W
Launch Date Apr 27, 2023
Age 3 years
Type internet

Technical Details

Classification Payload
Mass 300.00 kg
Dry Mass 260.00 kg
Total Mass 300.00 kg
Length 0.20 m
Diameter 2.80 m
Span 9.00 m
Shape Box + pan
Manufacturer SPXS
Bus Type Starlink
Phase Status In Orbit
Owner/State SPXS/US

Most Searched